Location: Tauranga
(37.6860°S, 176.1670°E)
Time: 18:47:20
(UTC+13:00)

Cosmos 2278 Rocket - Pass Details

Date: 24 January 2019
Orbit: 839 x 847 km, 71.0° (Epoch: 15 October)

Event Time Altitude Azimuth Distance (km) Brightness Sun altitude
Rises 23:28:01 0° 191° (S) 3,428 6.5 -26.5°
Reaches altitude 10° 23:30:57 10° 178° (S) 2,486 5.3 -26.9°
Maximum altitude 23:35:34 25° 123° (ESE) 1,660 3.7 -27.3°
Enters shadow 23:36:07 24° 114° (ESE) 1,672 3.6 -27.4°
